FW7330 Weather Reports


time (UTC)temp
F
wind
direction
speed
knots
gust
knots
rain 1hr
in
rain 24hr
in
rain mn
in
humidity
%
barometer
mb
20260504140209 62 357 1.7 2.6 0.00 0.22 0.00 77 1018.6
20260504130154 59 204 0.9 1.7 0.01 0.22 0.22 94 1018.7
20260504120142 62 54 0.9 1.7 0.01 0.21 0.21 94 1019.0
20260504110228 63 230 0.9 0.9 0.12 0.20 0.20 91 1018.9
20260504100215 66 231 1.7 5.2 0.00 0.08 0.08 84 1018.1
20260504080146 66 283 5.2 9.6 0.00 0.08 0.08 84 1016.7
20260504070235 67 270 6.1 11.3 0.00 0.08 0.08 82 1016.2
20260504060221 68 279 8.7 14.8 0.00 0.08 0.08 79 1016.0
20260504050247 68 303 7.0 11.3 0.00 0.08 0.08 79 1015.9
20260504045016 68 293 6.1 13.0 0.00 0.08 0.08 78 1015.9
20260504043722 68 290 7.0 13.9 0.00 0.08 0.08 81 1016.3
20260504042736 68 306 2.6 7.0 0.00 0.08 0.08 81 1016.3
20260504041446 68 339 4.3 7.0 0.00 0.08 0.08 81 1016.4
20260504040256 68 327 5.2 8.7 0.00 0.08 0.08 80 1016.6
20260504035002 68 324 2.6 6.1 0.00 0.08 0.08 80 1016.6
20260504033709 68 288 3.5 7.0 0.00 0.08 0.08 80 1016.8
20260504032623 68 282 4.3 11.3 0.00 0.08 0.08 79 1016.8
20260504031432 67 309 7.0 13.0 0.00 0.08 0.08 79 1017.1
20260504030140 67 310 3.5 7.8 0.00 0.08 0.08 80 1017.3
20260504025030 67 322 4.3 6.1 0.00 0.08 0.08 82 1017.3
20260504023800 67 294 1.7 3.5 0.00 0.08 0.08 82 1017.6
20260504022710 67 39 2.6 5.2 0.00 0.08 0.08 84 1017.6
20260504021419 67 12 2.6 6.1 0.00 0.08 0.08 85 1017.7
20260504020229 67 309 2.6 6.1 0.00 0.08 0.08 84 1017.8
20260504014936 67 282 4.3 7.0 0.00 0.08 0.08 82 1018.0
20260504013746 67 262 3.5 7.0 0.01 0.08 0.08 86 1018.3
20260504012657 66 273 4.3 6.1 0.01 0.08 0.08 86 1018.7
20260504011403 66 285 6.1 9.6 0.02 0.08 0.08 85 1019.1
20260504010214 65 274 6.1 13.0 0.02 0.08 0.08 87 1019.3
20260504005022 64 294 6.1 8.7 0.03 0.08 0.08 87 1019.5
20260504003728 64 293 3.5 6.1 0.02 0.07 0.07 89 1019.7
20260504002641 64 256 2.6 2.6 0.02 0.07 0.07 88 1019.8
20260504001348 64 294 5.2 7.0 0.01 0.06 0.06 87 1019.7
20260504000238 65 280 4.3 7.8 0.02 0.06 0.06 85 1019.7
20260503235007 63 276 4.3 7.0 0.01 0.05 0.05 91 1019.7
20260503233714 63 305 3.5 7.8 0.02 0.05 0.05 96 1019.5
20260503232628 63 314 0.9 1.7 0.04 0.05 0.05 96 1019.4
20260503231437 63 276 0.0 0.9 0.05 0.05 0.05 96 1019.4
20260503230143 63 148 0.9 1.7 0.04 0.04 0.04 96 1019.4
20260503224953 63 216 0.0 0.9 0.04 0.04 0.04 96 1019.4
20260503223803 63 110 0.9 1.7 0.03 0.03 0.03 96 1019.5
20260503222613 62 267 0.9 0.9 0.01 0.01 0.01 96 1019.5
20260503221421 62 225 0.9 1.7 0.00 0.00 0.00 96 1019.6
20260503220231 62 250 0.0 0.9 0.00 0.00 0.00 96 1019.2
20260503214938 62 248 0.0 0.9 0.00 0.00 0.00 96 1019.0
20260503213749 62 219 0.9 1.7 0.00 0.00 0.00 96 1018.9
20260503212702 62 0.0 0.9 0.00 0.00 0.00 96 1018.5
20260503211409 62 238 0.9 0.9 0.00 0.00 0.00 96 1018.6
20260503210219 62 236 0.0 0.9 0.00 0.00 0.00 96 1018.7
20260503205005 61 0.0 0.9 0.00 0.00 0.00 96 1018.3
20260503203816 61 237 0.9 0.9 0.00 0.00 0.00 96 1018.5
20260503202649 61 236 0.0 0.9 0.00 0.00 0.00 96 1018.4
20260503201436 61 0.0 0.9 0.00 0.00 0.00 95 1018.3
20260503200205 61 0.0 0.0 0.00 0.00 0.00 95 1018.2
20260503195015 61 237 0.0 0.9 0.00 0.00 0.00 95 1018.3
20260503193722 61 0.0 0.0 0.00 0.00 0.00 95 1018.4
20260503192716 62 0.0 0.9 0.00 0.00 0.00 95 1018.4
20260503191446 62 206 0.9 1.7 0.00 0.00 0.00 96 1018.4
20260503190151 62 132 0.0 0.9 0.00 0.00 0.00 96 1018.4
20260503185100 62 170 0.9 1.7 0.00 0.00 0.00 96 1018.5
20260503183811 61 148 0.0 0.9 0.00 0.00 0.00 96 1018.5
20260503182620 61 0.0 0.0 0.00 0.00 0.00 96 1018.6
20260503181429 61 0.0 0.9 0.00 0.00 0.00 96 1018.5
20260503180319 61 175 0.0 0.9 0.00 0.00 0.00 96 1018.6
20260503174944 61 188 0.9 1.7 0.00 0.00 0.00 96 1018.5
20260503173831 60 119 0.9 1.7 0.00 0.00 0.00 96 1018.4
20260503172601 60 141 1.7 2.6 0.00 0.00 0.00 96 1018.5
20260503171409 59 146 0.9 0.9 0.00 0.00 0.00 96 1018.7
20260503170217 60 181 0.0 0.9 0.00 0.00 0.00 96 1018.7
20260503150149 61 88 0.9 1.7 0.00 0.00 0.00 95 1019.7